Simultaneous Nadir Overpasses (SNOs) Predictions

Prediction of SNOs between AQUA and METOP-A Satellite Orbit:

Table of predicted SNOs for the next 14.0 days since TLE Epoch: 6/7/2019
Index Date (AQUA) Time (AQUA) Lat,Lon (AQUA) SZA (AQUA ) Date (METOP-A) Time (METOP-A) Lat,Lon (METOP-A) SZA (METOP-A ) Distance(km) Time Diff (sec)
1 06/08/2019 01:30:51 75.19, 148.36 52.50 06/08/2019 01:30:15 75.20, 148.44 52.52 2.65 36
2 06/08/2019 02:20:17 -75.21, -44.06 127.48 06/08/2019 02:20:56 -75.23, -44.16 127.47 3.52 39
3 06/10/2019 21:05:05 75.23,-145.29 52.31 06/10/2019 21:04:38 75.21,-145.19 52.30 3.58 27
4 06/10/2019 21:54:31 -75.24, 22.32 127.68 06/10/2019 21:55:19 -75.24, 22.22 127.69 2.86 48
5 06/13/2019 15:49:41 -74.66, 114.97 128.48 06/13/2019 15:48:35 -74.58, 112.12 128.41 84.39 66
6 06/13/2019 16:39:19 75.21, -78.82 52.12 06/13/2019 16:39:02 75.21, -78.82 52.13 0.32 17
7 06/13/2019 17:28:46 -75.26, 88.68 127.83 06/13/2019 17:29:42 -75.29, 88.73 127.81 2.92 56
8 06/16/2019 11:24:03 -75.05,-179.59 128.18 06/16/2019 11:22:51 -74.97, 179.53 128.20 26.73 72
9 06/16/2019 12:13:33 75.21, -12.36 51.99 06/16/2019 12:13:26 75.21, -12.46 52.01 2.83 7
10 06/16/2019 13:03:01 -75.30, 155.03 127.91 06/16/2019 13:04:06 -75.29, 155.10 127.93 2.22 65
11 06/19/2019 06:58:19 -75.19,-113.52 128.09 06/19/2019 06:57:10 -75.17,-113.56 128.10 2.94 69
12 06/19/2019 07:47:47 75.25, 53.95 51.98 06/19/2019 07:47:48 75.26, 54.04 51.99 2.59 1




NCC Satellite Simultaneous Nadir Overpasses (SNOs) Prediction Service
